Location: ??????????
(54.7560°N, 39.1389°E)
Time: 09:45:47
(UTC+00:00)

SL-16 R/B - Pass Details

Date: 19 May 2025
Orbit: 841 x 844 km, 71.0° (Epoch: 13 June)

Event Time Altitude Azimuth Distance (km) Brightness Sun altitude
Rises 20:58:17 0° 324° (NW) 3,416 6.4 -15.1°
Reaches altitude 10° 21:00:50 10° 319° (NW) 2,477 5.4 -15.2°
Maximum altitude 21:06:12 45° 248° (WSW) 1,136 2.7 -15.2°
Enters shadow 21:09:23 23° 188° (S) 1,730 3.2 -15.2°
